Regional Weather Roundup
Issued by NWS New Orleans/Baton Rouge, LA

Home | Current Version | Previous Version | Text Only | Print | Product List | Glossary On
Versions: 1 2 3 4 5 6 7 8 9 10 11 12 13 14 15 16 17 18 19 20 21 22 23 24 25 26 27 28 29 30 31 32 33 34 35 36 37 38 39 40 41 42 43 44 45 46 47 48 49 50
468
ASUS44 KLIX 070610
RWRLIX
NEW ORLEANS REGIONAL WEATHER ROUNDUP
NATIONAL WEATHER SERVICE NEW ORLEANS LA
1200 AM CST SUN FEB 07 2016

NOTE: "FAIR" INDICATES FEW OR NO CLOUDS BELOW 12,000 FEET WITH NO
      SIGNIFICANT WEATHER AND/OR OBSTRUCTIONS TO VISIBILITY.
      SKY/WX - SKY CONDITION AND SIGNIFICANT WEATHER.
      TMP - AIR TEMPERATURE.     DP    - DEWPOINT TEMPERATURE.
      RH  - RELATIVE HUMIDITY.   PRES  - PRESSURE.
      HI  - HEAT INDEX.          WCI   - WIND CHILL INDEX.

*  THESE STATIONS ARE NOT NWS OR FAA STATIONS AND ARE NOT UNDER
   NWS QUALITY CONTROL.

LAZ038-040-048-061>063-065>067-069-070700-
SOUTHEAST LOUISIANA

CITY           SKY/WX    TMP DP  RH WIND       PRES   REMARKS
N.O. AUDUBON   NOT AVBL
N.O. INTL ARPT CLEAR     42  29  59 W5        30.28F
6HR MIN TEMP:  42; 6HR MAX TEMP:  52;

N.O. LAKEFRONT CLEAR     50  37  61 N12       30.28F
6HR MIN TEMP:  50; 6HR MAX TEMP:  52;

N.O. DOWNTOWN*   N/A     48  32  53 MISG      30.29S
6HR MIN TEMP:  48; 6HR MAX TEMP:  55;

RESERVE*         N/A     45  30  54 NW3       30.29F
6HR MIN TEMP:  42; 6HR MAX TEMP:  53;

SLIDELL        PTCLDY    34  31  88 CALM      30.28F
6HR MIN TEMP:  34; 6HR MAX TEMP:  51;

BATON ROUGE    PTCLDY    38  29  70 CALM      30.30F
6HR MIN TEMP:  38; 6HR MAX TEMP:  52;

BOOTHVILLE     CLEAR     47  39  74 NW6       30.27F
6HR MIN TEMP:  46; 6HR MAX TEMP:  50;

BELLE CHASSE   CLEAR     35  31  85 W3        30.28F
6HR MIN TEMP:  35; 6HR MAX TEMP:  51;

BOGALUSA*        N/A     33  30  86 CALM      30.31S
6HR MIN TEMP:  33; 6HR MAX TEMP:  51;

GALLIANO*      CLEAR     42  35  77 CALM      30.29S
6HR MIN TEMP:  38; 6HR MAX TEMP:  53;

NEW ROADS*       N/A     36  33  90 CALM      30.31F
6HR MIN TEMP:  36; 6HR MAX TEMP:  49;

GONZALES*        N/A     39  32  76 N5        30.28S
6HR MIN TEMP:  38; 6HR MAX TEMP:  52;

HAMMOND*       CLEAR     34  32  93 N6        30.28F WCI  29
HOUMA*         CLEAR     38  33  84 W3        30.29F
6HR MIN TEMP:  38; 6HR MAX TEMP:  52;

PORT FOURCHON* CLEAR     48  37  66 NW6       30.29F

$$

MSZ070-080>082-070700-
SOUTHERN MISSISSIPPI

CITY           SKY/WX    TMP DP  RH WIND       PRES   REMARKS
MCCOMB         PTCLDY    40  24  53 NE5       30.28F
6HR MIN TEMP:  37; 6HR MAX TEMP:  52;

GULFPORT       CLEAR     39  31  72 CALM      30.28S
6HR MIN TEMP:  38; 6HR MAX TEMP:  50;

BILOXI         CLEAR     44  28  54 N6        30.28R
6HR MIN TEMP:  43; 6HR MAX TEMP:  49;

PASCAGOULA     CLEAR     34  32  92 CALM      30.28R
6HR MIN TEMP:  34; 6HR MAX TEMP:  49;


$$

COASTAL OBSERVATIONS
LAKE AND NEARSHORE STATIONS

STATION/POSITION TIME  TEMP    WIND        PRES    WAVE
                       AIR SEA DIR/SP/G            HT/PER
                 (UTC) (F)     (DEG/KT/KT) (MB)    (FT/S)
PASCAGOULA       0500   44     360/  5/  6 1024.3
WAVELAND YACHT   0500   47 54  310/  4/  5 1025.3
GRAND ISLE       0500   51 56  330/  7/  9 1025.4
NEW CANAL        0500   52 54  300/  2/  5 1024.9
SHELL BEACH      0500   53 54  330/ 11/ 13 1024.8

OFFSHORE STATIONS

STATION/POSITION TIME  TEMP    WIND        PRES    WAVE
                       AIR SEA DIR/SP/G            HT/PER
                 (UTC) (F)     (DEG/KT/KT) (MB)    (FT/S)

$$





USA.gov is the U.S. government's official web portal to all federal, state and local government web resources and services.